Location: Del Amo
(33.8464°N, 118.2104°W)
Time: 07:33:37
(UTC+00:00)

Vanguard 3 - Pass Details

Date: 13 September 2024
Orbit: 507 x 3223 km, 33.3° (Epoch: 09 October)

Event Time Altitude Azimuth Distance (km) Brightness Sun altitude
Rises 21:27:06 0° 285° (WNW) 6,333 11.9 51.8°
Reaches altitude 10° 21:32:17 10° 279° (W) 4,892 11.6 51.1°
Maximum altitude 21:43:24 36° 220° (SW) 2,276 11.5 49.4°
Drops below altitude 10° 21:50:10 10° 155° (SSE) 2,955 10.3 48.4°
Sets 21:52:32 0° 146° (SE) 3,630 10.5 48.0°
